Home   Weather   Mashhad   Past weeks

Flag for Iran Past Weather in Mashhad, Iran — Yesterday and Last 2 Weeks

Now
70 °F

Sunny.


Feels Like: 70 °F
Forecast: 53 / 78 °F
Wind: 7 mph from East

Location: Mashhad Airport

Current Time: May 1, 2017 at 10:53:00 am

Latest Report: May 1, 2017 at 10:30 am


Visibility: 10 mi

Pressure: 30.15 "Hg (26.90 "Hg at 981m altitude)

Humidity: 23%

Dew Point: 30 °F

Location of MashhadLocation

Past Weather in Mashhad — Graph

°F

Mashhad Temperature Yesterday

Maximum temperature yesterday: 72 °F (at 2:00 pm)
Minimum temperature yesterday: 46 °F (at 3:00 am)
Average temperature yesterday: 60 °F

High & Low Weather Summary for the Past Weeks

 TemperatureHumidityPressure
High84 °F (Apr 19, 2:30 pm)94% (Apr 19, 5:00 am)30.48 "Hg (Apr 19, 5:00 am)
Low43 °F (Apr 29, 4:00 am)9% (Apr 24, 3:30 pm)29.80 "Hg (Apr 19, 4:00 pm)
Average63 °F42%30.13 "Hg
* Reported Apr 16 9:30 am — May 1 9:30 am, Mashhad, Weather by CustomWeather, © 2017

Note: Actual official high and low records may vary slightly from our data, if they occured in-between our weather recording intervals... More about our weather records

Advertising

Mashhad Weather History for the Previous 24 Hours

Scroll right to see more
 ConditionsComfort  
Time TempWeatherWind HumidityBarometerVisibility
9:30 am
Mon, May 1
68 °FSunny.9 mph26%30.15 "Hg10 mi
9:00 am66 °FSunny.9 mph28%30.15 "Hg10 mi
8:30 am66 °FSunny.No wind22%30.15 "Hg10 mi
8:00 am63 °FSunny.5 mph30%30.15 "Hg10 mi
7:30 am59 °FSunny.5 mph42%30.15 "Hg10 mi
7:00 am55 °FSunny.5 mph44%30.15 "Hg10 mi
6:30 am55 °FSunny.No wind44%30.15 "Hg10 mi
6:00 am52 °FClear.No wind50%30.12 "Hg10 mi
5:30 am52 °FClear.No wind44%30.12 "Hg10 mi
5:00 am50 °FClear.5 mph54%30.12 "Hg10 mi
4:30 am54 °FClear.5 mph41%30.12 "Hg10 mi
4:00 am54 °FClear.5 mph41%30.12 "Hg10 mi
3:30 am54 °FClear.5 mph44%30.12 "Hg10 mi
3:00 am54 °FClear.5 mph41%30.12 "Hg10 mi
2:30 am55 °FClear.2 mph38%30.12 "Hg10 mi
2:00 am55 °FClear.5 mph38%30.12 "Hg10 mi
1:30 am55 °FClear.7 mph36%30.12 "Hg10 mi
1:00 am57 °FClear.5 mph33%30.15 "Hg10 mi
12:30 am57 °FClear.2 mph31%30.15 "Hg10 mi
12:00 am57 °FClear.5 mph31%30.15 "Hg10 mi
11:30 pm
Sun, Apr 30
59 °FClear.7 mph29%30.15 "Hg10 mi
11:00 pm61 °FClear.5 mph27%30.18 "Hg10 mi
10:30 pm61 °FClear.5 mph27%30.18 "Hg10 mi
10:00 pm63 °FClear.7 mph24%30.18 "Hg10 mi
9:30 pm61 °FClear.7 mph25%30.18 "Hg10 mi
9:00 pm63 °FClear.5 mph24%30.15 "Hg10 mi
8:30 pm63 °FClear.5 mph22%30.15 "Hg10 mi
8:00 pm64 °FClear.7 mph22%30.15 "Hg10 mi
7:30 pm66 °FSunny.12 mph22%30.15 "Hg10 mi
7:00 pm66 °FSunny.9 mph22%30.15 "Hg10 mi
6:30 pm70 °FSunny.14 mph18%30.15 "Hg10 mi
6:00 pm70 °FSunny.14 mph17%30.15 "Hg10 mi
5:30 pm72 °FSunny.12 mph15%30.15 "Hg10 mi
4:30 pm72 °FSunny.12 mph14%30.18 "Hg10 mi
4:00 pm72 °FSunny.9 mph15%30.18 "Hg10 mi
3:30 pm72 °FSunny.14 mph15%30.18 "Hg10 mi
3:00 pm72 °FSunny.14 mph16%30.18 "Hg10 mi
2:30 pm72 °FSunny.16 mph16%30.18 "Hg10 mi
2:00 pm72 °FSunny.9 mph17%30.21 "Hg10 mi
1:30 pm70 °FSunny.14 mph17%30.21 "Hg10 mi
1:00 pm68 °FSunny.7 mph20%30.24 "Hg10 mi
12:30 pm68 °FSunny.5 mph18%30.24 "Hg10 mi
12:00 pm66 °FSunny.12 mph19%30.24 "Hg10 mi
11:30 am66 °FSunny.5 mph22%30.24 "Hg10 mi
11:00 am64 °FSunny.5 mph19%30.27 "Hg10 mi
10:30 am63 °FSunny.7 mph25%30.27 "Hg10 mi
10:00 am61 °FSunny.7 mph22%30.27 "Hg10 mi
Weather by CustomWeather, © 2017

See weather overviewHow to use our weather pages